• In Romania
  • List of Countries
  • For 7 days
  • Water Temperature
  • Satellite Maps
  • Weather Map
  • Weather Widgets
  • user-avatar
    Login

    Hourly Weather Pontypridd

    Today, 17 February, Saturday

    Time Temperature Precipitation Wind Pressure Humidity
    00:00 +3°C° 0 mm 4 mps 754 mmHg 85%
    01:00 +3°C° 0.1 mm 4 mps 754 mmHg 86%
    02:00 +3°C° 0.1 mm 4 mps 754 mmHg 86%
    03:00 +3°C° 0.1 mm 4 mps 753 mmHg 87%
    04:00 +3°C° 0.1 mm 4 mps 753 mmHg 88%
    05:00 +4°C° 0.1 mm 4 mps 754 mmHg 88%
    06:00 +3°C° 0 mm 3 mps 754 mmHg 90%
    07:00 +3°C° 0 mm 3 mps 754 mmHg 90%
    08:00 +4°C° 0 mm 3 mps 754 mmHg 89%
    09:00 +4°C° 0 mm 3 mps 755 mmHg 89%
    10:00 +5°C° 0 mm 3 mps 755 mmHg 84%
    11:00 +8°C° 0 mm 3 mps 755 mmHg 80%
    12:00 +7°C° 0 mm 4 mps 755 mmHg 75%
    13:00 +8°C° 0 mm 4 mps 755 mmHg 74%
    14:00 +8°C° 0 mm 4 mps 755 mmHg 73%
    15:00 +8°C° 0 mm 4 mps 755 mmHg 72%
    16:00 +6°C° 0 mm 4 mps 755 mmHg 77%
    17:00 +5°C° 0 mm 3 mps 755 mmHg 82%
    18:00 +4°C° 0 mm 3 mps 755 mmHg 88%
    19:00 +4°C° 0 mm 3 mps 755 mmHg 89%
    20:00 +4°C° 0 mm 3 mps 755 mmHg 90%
    21:00 +3°C° 0 mm 3 mps 755 mmHg 92%
    22:00 +4°C° 0.2 mm 3 mps 755 mmHg 92%
    23:00 +4°C° 0.2 mm 3 mps 755 mmHg 93%

    Tomorrow, 18 February, Sunday

    Time Temperature Precipitation Wind Pressure Humidity
    00:00 +4°C° 0.2 mm 3 mps 755 mmHg 94%
    01:00 +5°C° 0.3 mm 4 mps 755 mmHg 94%
    02:00 +5°C° 0.3 mm 4 mps 755 mmHg 95%
    03:00 +5°C° 0.3 mm 4 mps 755 mmHg 95%
    04:00 +5°C° 0.1 mm 4 mps 755 mmHg 95%
    05:00 +5°C° 0.1 mm 4 mps 755 mmHg 95%
    06:00 +5°C° 0.1 mm 4 mps 754 mmHg 95%
    07:00 +6°C° 0 mm 4 mps 754 mmHg 94%
    08:00 +6°C° 0 mm 4 mps 754 mmHg 94%
    09:00 +6°C° 0 mm 5 mps 754 mmHg 93%
    10:00 +7°C° 0 mm 5 mps 754 mmHg 91%
    11:00 +8°C° 0 mm 5 mps 754 mmHg 89%
    12:00 +8°C° 0 mm 5 mps 754 mmHg 88%
    13:00 +8°C° 0.1 mm 4 mps 754 mmHg 88%
    14:00 +8°C° 0.1 mm 4 mps 754 mmHg 89%
    15:00 +8°C° 0.1 mm 4 mps 754 mmHg 89%
    16:00 +9°C° 0.1 mm 3 mps 754 mmHg 91%
    17:00 +9°C° 0.1 mm 3 mps 754 mmHg 94%
    18:00 +8°C° 0.1 mm 3 mps 754 mmHg 96%
    19:00 +8°C° 0.1 mm 2 mps 754 mmHg 97%
    20:00 +8°C° 0.1 mm 2 mps 754 mmHg 97%
    21:00 +8°C° 0.1 mm 2 mps 754 mmHg 98%
    22:00 +8°C° 0.1 mm 2 mps 754 mmHg 98%
    23:00 +8°C° 0.1 mm 2 mps 754 mmHg 98%

    Day after tomorrow, 19 February, Monday

    Time Temperature Precipitation Wind Pressure Humidity
    00:00 +8°C° 0.1 mm 2 mps 754 mmHg 98%
    01:00 +8°C° 0.2 mm 2 mps 754 mmHg 98%
    02:00 +8°C° 0.2 mm 2 mps 754 mmHg 98%
    03:00 +8°C° 0.2 mm 2 mps 753 mmHg 98%
    04:00 +8°C° 0.1 mm 2 mps 753 mmHg 97%
    05:00 +9°C° 0.1 mm 2 mps 753 mmHg 97%
    06:00 +9°C° 0.1 mm 2 mps 753 mmHg 97%
    07:00 +9°C° 0 mm 3 mps 753 mmHg 96%
    08:00 +9°C° 0 mm 3 mps 754 mmHg 95%
    09:00 +9°C° 0 mm 3 mps 754 mmHg 94%
    10:00 +10°C° 0 mm 3 mps 754 mmHg 91%
    11:00 +11°C° 0 mm 3 mps 754 mmHg 88%
    12:00 +11°C° 0 mm 4 mps 754 mmHg 86%
    13:00 +11°C° 0 mm 4 mps 754 mmHg 85%
    14:00 +11°C° 0 mm 4 mps 754 mmHg 84%
    15:00 +12°C° 0 mm 4 mps 754 mmHg 84%
    16:00 +11°C° 0 mm 4 mps 754 mmHg 86%
    17:00 +10°C° 0 mm 4 mps 754 mmHg 89%
    18:00 +9°C° 0 mm 3 mps 754 mmHg 91%
    19:00 +8°C° 0 mm 3 mps 754 mmHg 91%
    20:00 +8°C° 0 mm 3 mps 754 mmHg 91%
    21:00 +7°C° 0 mm 3 mps 754 mmHg 91%
    22:00 +7°C° 0 mm 3 mps 755 mmHg 92%
    23:00 +7°C° 0 mm 3 mps 755 mmHg 93%

    20 February, Tuesday

    Time Temperature Precipitation Wind Pressure Humidity
    00:00 +6°C° 0 mm 4 mps 755 mmHg 94%
    01:00 +6°C° 0 mm 4 mps 755 mmHg 93%
    02:00 +6°C° 0 mm 5 mps 755 mmHg 92%
    03:00 +7°C° 0 mm 6 mps 755 mmHg 90%
    04:00 +5°C° 0 mm 6 mps 755 mmHg 89%
    05:00 +4°C° 0 mm 6 mps 756 mmHg 87%
    06:00 +4°C° 0 mm 7 mps 756 mmHg 85%
    07:00 +4°C° 0 mm 7 mps 756 mmHg 84%
    08:00 +4°C° 0 mm 7 mps 757 mmHg 82%
    09:00 +4°C° 0 mm 8 mps 757 mmHg 80%
    10:00 +5°C° 0 mm 8 mps 757 mmHg 76%
    11:00 +6°C° 0 mm 8 mps 757 mmHg 71%
    12:00 +7°C° 0 mm 8 mps 758 mmHg 66%
    13:00 +8°C° 0 mm 7 mps 758 mmHg 65%
    14:00 +8°C° 0 mm 7 mps 758 mmHg 64%
    15:00 +8°C° 0 mm 7 mps 758 mmHg 63%
    16:00 +7°C° 0 mm 6 mps 758 mmHg 68%
    17:00 +5°C° 0 mm 6 mps 758 mmHg 72%
    18:00 +5°C° 0 mm 5 mps 758 mmHg 76%
    19:00 +5°C° 0 mm 5 mps 759 mmHg 78%
    20:00 +3°C° 0 mm 5 mps 759 mmHg 80%
    21:00 +3°C° 0 mm 5 mps 760 mmHg 81%
    22:00 +2°C° 0 mm 5 mps 760 mmHg 83%
    23:00 +2°C° 0 mm 5 mps 760 mmHg 84%

    21 February, Wednesday

    Time Temperature Precipitation Wind Pressure Humidity
    00:00 +2°C° 0 mm 5 mps 760 mmHg 86%
    01:00 +1°C° 0 mm 4 mps 760 mmHg 87%
    02:00 +1°C° 0 mm 4 mps 760 mmHg 89%
    03:00 +1°C° 0 mm 4 mps 759 mmHg 91%
    04:00 +1°C° 0 mm 4 mps 759 mmHg 91%
    05:00 +1°C° 0 mm 4 mps 759 mmHg 92%
    06:00 +1°C° 0 mm 4 mps 759 mmHg 92%
    07:00 +1°C° 0 mm 4 mps 759 mmHg 90%
    08:00 +1°C° 0 mm 4 mps 760 mmHg 89%
    09:00 +3°C° 0 mm 4 mps 760 mmHg 87%
    10:00 +4°C° 0 mm 4 mps 759 mmHg 83%
    11:00 +4°C° 0 mm 4 mps 759 mmHg 79%
    12:00 +5°C° 0 mm 4 mps 759 mmHg 75%
    13:00 +5°C° 0 mm 4 mps 759 mmHg 74%
    14:00 +5°C° 0 mm 4 mps 758 mmHg 72%
    15:00 +5°C° 0 mm 4 mps 758 mmHg 71%
    16:00 +4°C° 0 mm 4 mps 758 mmHg 75%
    17:00 +3°C° 0 mm 3 mps 758 mmHg 79%
    18:00 +3°C° 0 mm 3 mps 758 mmHg 83%
    19:00 +2°C° 0 mm 3 mps 758 mmHg 85%
    20:00 +1°C° 0 mm 3 mps 758 mmHg 87%
    21:00 +1°C° 0 mm 3 mps 758 mmHg 89%
    22:00 0°C° 0 mm 3 mps 758 mmHg 89%
    23:00 -1°C° 0 mm 4 mps 758 mmHg 90%

    22 February, Thursday

    Time Temperature Precipitation Wind Pressure Humidity
    00:00 -1°C° 0 mm 4 mps 758 mmHg 91%
    01:00 -2°C° 0 mm 4 mps 758 mmHg 91%
    02:00 -2°C° 0 mm 4 mps 757 mmHg 92%
    03:00 -2°C° 0 mm 4 mps 757 mmHg 92%
    04:00 -3°C° 0 mm 4 mps 757 mmHg 92%
    05:00 -3°C° 0 mm 4 mps 757 mmHg 92%
    06:00 -3°C° 0 mm 4 mps 757 mmHg 92%
    07:00 -2°C° 0 mm 4 mps 757 mmHg 87%
    08:00 -1°C° 0 mm 5 mps 757 mmHg 82%
    09:00 -1°C° 0 mm 5 mps 757 mmHg 78%
    10:00 -1°C° 0 mm 6 mps 757 mmHg 73%
    11:00 +1°C° 0 mm 6 mps 757 mmHg 68%
    12:00 +2°C° 0 mm 6 mps 757 mmHg 64%
    13:00 +3°C° 0 mm 6 mps 757 mmHg 63%
    14:00 +3°C° 0 mm 6 mps 757 mmHg 62%
    15:00 +3°C° 0 mm 5 mps 757 mmHg 62%
    16:00 +2°C° 0 mm 5 mps 757 mmHg 66%
    17:00 +1°C° 0 mm 5 mps 757 mmHg 69%
    18:00 0°C° 0 mm 4 mps 757 mmHg 73%
    19:00 -1°C° 0 mm 4 mps 757 mmHg 75%
    20:00 -2°C° 0 mm 4 mps 757 mmHg 77%
    21:00 -2°C° 0 mm 4 mps 757 mmHg 78%
    22:00 -2°C° 0 mm 4 mps 757 mmHg 80%
    23:00 -3°C° 0 mm 4 mps 757 mmHg 82%
    Show more